sat.trackr.live / text

‹ back to catalog

KUIPER-00468

NORAD 68873 · 2026-095K

PAYLOAD ACTIVE UNKNOWN

§ Identity

Operator
Country
US
Launch date
2026-04-28
Launch site
AFETR
Launch vehicle
Mass (kg)
RCS (m²)

External: N2YO · Heavens-Above · Gunter

§ Orbital elements

Epoch: 2026-09-19T05:19:13.252224Z

Period
97.52 min
Inclination
51.8986°
Eccentricity
0.0000850
Mean motion
14.76625847 rev/d
Perigee alt
639.4 km
Apogee alt
640.6 km
Semi-major
7,018.1 km
B*
2.2759e-4
RAAN
172.4191°
Arg perigee
167.6942°
Mean anomaly
192.4040°
Rev number
2,185

§ Raw data

KUIPER-004681 68873U 26095K   26262.22168116  .00001390  00000+0  22759-3 0  99992 68873  51.8986 172.4191 0000850 167.6942 192.4040 14.76625847 21850

JSON: /api/v1/satellites/68873 · /tle

For live sub-satellite position, see the globe view (requires WebGL).

§ Visibility from observer

Set your observer location to see the next 7 days of passes ≥ 10°. The values pass through the URL so the page stays shareable.

No JS? Fill the form by hand. The geolocation button needs JavaScript.